Regional Weather Roundup
Issued by NWS

Home | Current Version | Previous Version | Graphics & Text | Print | Product List | Glossary On
Versions: 1 2 3 4 5 6 7 8 9 10 11 12 13 14 15 16 17 18 19 20 21 22 23 24 25 26 27 28 29 30 31 32 33 34 35 36 37 38 39 40 41 42 43 44 45 46 47 48 49 50
000
ASUS43 KLMK 281102
RWRKY
KENTUCKY REGIONAL WEATHER ROUNDUP
NATIONAL WEATHER SERVICE LOUISVILLE KY
700 AM EDT THU MAY 28 2015

NOTE "FAIR" INDICATES FEW OR NO CLOUDS BELOW 12,000 FEET
WITH NO SIGNIFICANT WEATHER AND/OR OBSTRUCTIONS TO VISIBILITY.

KYZ001>023-026-027-061>063-070>075-281200-
WESTERN AND SOUTH CENTRAL KENTUCKY

CITY           SKY/WX    TMP DP  RH WIND       PRES   REMARKS
PADUCAH        PTCLDY    64  62  93 NE3       30.14R FOG
HENDERSON      CLOUDY    63  61  94 CALM      30.16R VSB 1/4
OWENSBORO      CLOUDY    65  65 100 SE3       30.18R FOG
HOPKINSVILLE   FOG       63  63 100 N3        30.17R VSB 1/4
BOWLING GREEN  MOCLDY    65  63  93 E3        30.19R FOG
GLASGOW        NOT AVBL
$$

KYZ024-025-028>034-038-045-046-053-281200-
NORTH CENTRAL KENTUCKY

CITY           SKY/WX    TMP DP  RH WIND       PRES   REMARKS
LOUISVILLE/SDF CLOUDY    68  65  90 CALM      30.20R
LOUISVILLE/LOU CLOUDY    67  64  90 CALM      30.20R
FORT KNOX      FOG       64  64 100 E2        30.19R VSB<1/4
$$

KYZ035>037-039>044-047>052-055>060-089>105-281200-
NORTHEAST KENTUCKY

CITY           SKY/WX    TMP DP  RH WIND       PRES   REMARKS
LEXINGTON      CLOUDY    61  60  97 CALM      30.22R
COVINGTON      FOG       64  63  96 CALM      30.20R VSB 1/4
FRANKFORT      CLOUDY    62  60  93 CALM      30.21R
$$

KYZ054-064>069-076>088-106>120-281200-
SOUTHEAST KENTUCKY

CITY           SKY/WX    TMP DP  RH WIND       PRES   REMARKS
JACKSON        PTCLDY    63  60  90 CALM      30.25R
LONDON         CLOUDY    63  58  83 CALM      30.23R
SOMERSET       NOT AVBL
MIDDLESBORO    CLOUDY    64  64 100 CALM      30.24R
MONTICELLO     CLOUDY    63  63 100 CALM      30.26R
$$




USA.gov is the U.S. government's official web portal to all federal, state and local government web resources and services.